Location: Unspecified
(0.0000°N, 0.0000°E)
Time: 08:03:40
(UTC+00:00)

COSMOS-2409 - Visible Passes

Search period start: 10 June 2023 00:00
Search period end: 20 June 2023 00:00
Orbit: 1473 x 1495 km, 82.5° (Epoch: 09 June)

Date Brightness Start Highest point End Pass type
(mag) Time Alt. Az. Time Alt. Az. Time Alt. Az.
10 Jun 9.6 01:18:21 12° ENE 01:18:21 12° ENE 01:19:18 10° ENE visible
10 Jun 8.1 03:14:05 38° NNW 03:14:05 38° NNW 03:19:10 10° N visible
11 Jun 8.5 02:22:54 34° NNE 02:22:54 34° NNE 02:27:21 10° NNE visible
11 Jun 9.1 04:18:37 11° WNW 04:18:37 11° WNW 04:19:11 10° WNW visible
12 Jun 9.3 01:31:41 17° NE 01:31:41 17° NE 01:33:54 10° NE visible
12 Jun 8.6 03:27:24 24° NW 03:27:24 24° NW 03:30:53 10° NNW visible
13 Jun 8.6 02:36:09 30° N 02:36:09 30° N 02:39:54 10° N visible
14 Jun 9.2 01:44:53 21° NNE 01:44:53 21° NNE 01:47:25 10° NNE visible
14 Jun 9.1 03:40:36 14° NW 03:40:36 14° NW 03:41:52 10° NW visible
15 Jun 8.9 02:49:18 22° NNW 02:49:18 22° NNW 02:52:01 10° NNW visible
16 Jun 9.1 01:57:59 21° NNE 01:57:59 21° NNE 02:00:20 10° N visible
17 Jun 9.6 01:06:38 12° NE 01:06:38 12° NE 01:07:06 10° NE visible
17 Jun 9.2 03:02:21 14° NNW 03:02:21 14° NNW 03:03:36 10° NNW visible
18 Jun 9.2 02:10:59 18° N 02:10:59 18° N 02:12:49 10° N visible
19 Jun 9.5 01:19:36 14° NNE 01:19:36 14° NNE 01:20:29 10° NNE visible
